RH
84 80 69 80 88 97 95 96 100 98 85 99 99 100 69 67 69 69 63 53 55 58 62 69 64 65 54 47 61 76 59 68 85 70 46 46 44 54 61 92 78 88 74 56
80 77 75 84 93 99 100 97 97 99 88 99 100 90 73 76 75 74 66 66 56 53 63 73 58 60 50 54 58 60 62 91 90 72 68 58 70 56 54 81 84 88 84 48
78 76 76 86 92 100 92 97 100 95 88 78 75 71 72 81 71 75 65 68 60 60 62 58 68 67 58 52 53 58 58 66 85 66 66 61 100 78 77 96 92 68 68 55
77 79 76 86 89 96 89 97 96 85 100 86 60 59 68 76 76 69 63 68 61 62 70 69 69 64 62 61 62 62 65 100 92 77 66 77 89 85 93 99 79 80 55 47
75 80 79 83 88 86 91 96 97 76 84 69 58 70 68 68 76 67 72 68 64 63 66 65 69 66 66 62 62 66 71 89 97 96 79 78 97 88 94 97 94 69 60 60
77 81 78 83 85 89 95 94 92 91 84 74 63 67 63 63 63 68 65 63 68 77 69 59 59 57 60 62 65 72 89 100 100 88 63 72 96 96 96 95 92 75 82 59
80 81 80 82 81 90 99 96 99 96 85 72 61 61 63 65 61 74 72 65 72 67 61 59 63 62 65 73 77 60 91 100 100 97 90 96 84 78 82 83 79 71 62 54
81 83 82 84 81 88 96 100 99 97 81 64 62 61 62 69 70 68 70 69 63 61 64 77 75 76 81 74 75 74 69 90 100 99 98 69 68 75 86 78 64 52 60 55
82 83 82 86 81 85 84 100 99 98 94 72 54 60 60 65 70 77 72 76 73 72 81 79 93 77 66 69 74 80 79 82 99 100 98 91 66 54 60 59 65 52 57 54
83 83 84 86 79 82 86 94 99 98 99 70 56 66 70 67 69 77 75 78 82 84 84 85 95 82 68 69 70 85 90 96 96 96 93 64 53 54 69 65 56 54 60 52
76 81 80 77 78 79 85 84 97 98 98 84 67 61 73 76 68 71 73 81 87 94 96 96 86 86 67 73 62 67 64 78 87 78 76 78 51 58 58 53 52 54 62 71
75 74 73 74 76 78 81 89 88 88 99 92 88 77 69 61 56 68 81 75 80 80 93 93 94 82 75 68 67 63 74 59 57 60 54 46 49 52 48 55 57 57 61 65
75 73 72 72 73 76 79 85 88 89 98 88 82 72 78 69 63 61 73 90 73 88 86 94 93 97 88 75 69 66 63 60 66 65 49 54 50 50 53 60 62 62 64 61
77 75 73 72 73 76 77 85 85 90 96 100 78 83 81 84 74 70 71 75 84 89 96 93 89 94 69 70 69 68 60 67 64 63 53 50 51 52 57 65 63 63 60 56
79 79 79 72 73 79 81 77 86 85 95 98 86 84 98 94 88 86 83 78 82 89 95 98 92 80 88 72 76 70 60 57 55 48 52 50 50 57 61 63 63 60 60 60
81 80 80 78 78 82 85 92 100 90 95 100 97 90 91 93 92 90 89 88 89 87 94 91 86 73 82 86 76 53 50 54 51 48 52 54 59 59 60 62 64 58 57 55
79 80 78 79 81 83 84 87 97 87 96 98 99 94 93 95 90 91 89 89 92 92 94 96 88 82 93 96 81 52 53 52 53 56 55 59 61 56 60 61 62 59 53 52
80 80 80 88 94 91 88 84 74 88 100 98 100 96 88 92 95 90 84 92 98 98 95 96 99 95 99 98 72 60 56 59 59 57 59 61 60 63 65 62 59 59 57 54
82 85 76 91 76 85 93 87 90 93 100 99 100 100 95 94 94 87 99 96 99 90 100 98 98 90 98 77 66 63 61 62 58 68 66 66 64 67 67 63 60 59 59 55
78 75 87 97 90 89 95 97 96 100 99 100 98 79 90 85 91 97 92 95 98 100 92 96 99 97 72 67 65 61 59 62 69 75 91 95 93 86 69 66 56 55 56 53
89 85 94 98 93 99 92 100 100 99 100 97 88 81 82 84 90 90 88 96 100 100 90 95 96 85 71 67 66 68 64 60 61 56 58 60 60 63 62 60 58 57 55 54
91 98 96 98 100 100 100 100 100 97 96 98 96 86 81 90 87 89 94 98 98 99 81 95 96 75 74 67 68 76 67 62 62 57 60 59 60 57 57 61 60 58 62 61
85 88 90 95 98 96 95 96 99 99 100 100 99 99 87 89 85 91 92 96 93 80 96 91 81 75 68 65 74 77 69 63 63 68 66 63 65 64 60 63 64 63 61 59
83 90 96 93 95 94 95 99 100 100 100 99 98 97 93 86 96 88 95 84 87 96 98 92 83 71 65 73 80 79 72 66 67 70 69 74 72 71 68 67 66 62 62 61
88 87 98 95 92 99 99 100 100 99 98 99 97 96 82 95 95 85 94 96 95 86 86 82 81 75 76 80 81 79 72 69 74 74 74 75 74 66 71 70 63 61 61 58
93 92 95 84 90 90 88 88 97 98 98 100 98 99 98 97 92 97 99 97 93 82 96 83 72 75 77 80 79 76 70 67 69 68 70 69 67 65 68 66 62 60 59 57
89 92 92 91 92 94 90 73 80 79 98 100 100 100 100 93 95 96 89 90 90 92 88 83 92 90 80 78 76 75 72 70 70 73 70 70 71 67 64 65 65 62 58 57
Wind_Speed
28 29 30 33 35 37 24 4 1 15 23 4 1 1 1 5 6 0 4 8 10 13 13 11 9 9 5 8 11 10 12 5 8 14 14 14 16 16 19 9 12 7 10 21
29 30 30 33 38 45 14 2 1 4 8 3 4 2 1 3 2 3 3 4 3 6 9 6 8 5 3 10 12 12 11 5 4 5 3 8 10 19 22 18 10 20 10 15
30 31 31 34 40 43 5 2 3 2 2 0 8 8 3 5 5 3 6 6 5 7 6 2 7 7 4 11 13 5 10 6 8 10 13 8 8 12 19 18 11 18 21 29
29 30 32 36 42 37 7 1 3 3 3 3 9 3 3 8 3 3 3 4 3 5 4 5 4 6 3 4 8 9 7 6 11 20 23 22 23 26 20 22 28 17 28 20
27 29 32 36 39 33 6 3 3 3 3 7 10 2 3 3 4 3 3 3 8 7 3 5 3 5 6 5 10 12 6 7 4 16 20 23 23 23 21 18 24 26 28 27
25 27 30 32 34 35 5 4 3 3 5 6 7 6 7 6 6 2 4 6 5 6 5 7 8 9 4 4 6 13 5 2 2 8 14 22 9 7 11 7 12 20 20 24
23 25 27 28 30 28 16 4 3 2 4 6 5 6 5 8 7 4 3 5 3 1 2 4 6 11 12 13 14 11 6 4 2 8 12 4 5 5 10 13 16 17 22 23
21 22 23 25 26 27 25 11 2 2 1 7 7 5 5 5 5 3 3 2 2 1 2 3 5 3 4 7 13 16 15 7 3 3 4 11 4 8 6 4 6 5 18 21
21 21 22 23 24 25 28 8 14 2 3 7 8 8 7 7 4 2 3 2 1 2 2 2 3 2 1 1 3 2 8 11 4 1 4 4 7 6 2 2 3 12 11 13
21 20 21 22 24 24 23 6 16 4 2 4 10 10 8 5 5 3 1 2 1 1 3 3 4 3 1 2 3 4 4 2 6 6 5 6 4 5 3 5 7 14 11 2
19 20 20 21 22 22 23 12 9 7 3 6 4 6 4 3 4 4 4 3 2 2 2 3 3 3 2 3 2 3 6 5 4 4 3 3 2 3 3 4 8 8 5 1
19 20 20 19 19 19 18 7 16 19 4 4 2 2 1 2 5 4 3 1 3 3 3 3 2 3 3 3 2 3 4 5 2 5 3 2 2 7 5 3 6 4 2 1
19 19 20 20 20 20 18 15 16 13 3 2 2 3 2 5 5 6 3 1 4 3 1 1 2 4 0 3 4 2 5 4 3 3 3 5 4 4 2 4 3 2 1 8
20 20 21 20 19 19 18 14 13 6 3 3 1 1 1 2 4 4 1 5 4 3 1 2 3 2 2 2 2 3 1 5 5 5 9 8 4 2 3 5 5 7 8 9
22 21 21 19 19 19 21 24 13 14 3 2 1 1 1 1 3 5 4 6 5 2 2 3 3 2 1 3 2 5 5 5 3 2 1 2 3 3 4 6 6 6 12 13
24 23 22 20 21 17 12 1 10 14 5 2 2 2 2 2 2 5 4 3 2 2 2 2 3 3 2 3 4 7 11 6 5 2 2 1 3 4 5 9 7 8 12 12
26 26 24 26 21 14 6 2 1 12 11 2 1 2 2 3 2 2 2 4 2 2 2 2 2 2 3 2 8 6 6 7 7 3 5 2 5 2 6 11 12 12 14 15
29 30 28 20 8 5 6 9 7 8 5 3 1 0 1 5 2 2 3 3 3 3 2 2 2 2 2 5 11 14 7 3 5 7 3 3 9 10 10 11 13 14 13 14
31 24 6 3 3 2 1 6 3 10 5 2 1 2 1 2 1 1 2 0 2 1 2 2 1 3 5 11 9 8 7 5 3 6 5 8 8 11 12 13 12 14 13 13
18 8 4 2 2 12 1 5 1 3 4 3 2 1 1 2 1 1 0 0 1 2 1 2 3 4 12 11 7 6 3 6 11 7 4 5 5 10 13 13 11 12 13 14
6 5 2 7 10 0 1 1 2 3 2 3 1 4 3 3 3 3 1 1 0 2 0 2 2 4 3 3 7 6 8 9 11 2 2 10 12 14 13 13 11 13 16 14
7 8 5 4 2 1 0 1 2 2 2 2 1 1 2 1 1 1 1 1 1 4 3 2 3 3 2 6 6 8 4 8 9 3 4 8 12 14 14 13 14 16 20 22
0 1 2 1 1 3 3 5 2 2 3 3 1 1 1 2 0 2 2 3 3 1 2 3 4 3 4 6 5 4 1 6 7 6 7 11 11 18 19 15 18 22 21 20
1 1 3 1 2 2 2 2 2 2 2 3 1 1 1 0 2 1 2 1 1 2 3 5 2 3 6 6 4 2 2 4 7 9 10 11 12 12 17 19 23 23 20 20
1 1 2 2 1 2 1 1 2 2 2 3 1 1 1 1 1 1 2 2 4 5 4 3 2 3 4 4 2 0 4 4 5 7 10 11 13 14 16 19 21 22 23 22
0 1 1 1 1 1 1 2 3 2 4 1 1 1 1 4 2 3 6 3 5 3 3 2 3 4 3 3 1 2 4 6 7 6 9 13 15 14 18 20 20 21 22 22
2 1 1 1 1 2 2 1 2 4 3 0 1 3 2 1 1 3 4 4 3 6 5 5 6 6 5 2 1 4 6 7 8 12 13 14 18 22 22 14 18 20 21 22
Wind_Direction
352 352 350 346 342 337 331 120 115 147 139 93 162 172 156 127 145 30 101 100 102 149 163 172 190 206 244 181 154 188 204 219 243 242 240 228 236 238 224 232 235 221 262 271
353 356 353 349 343 337 318 93 92 120 195 139 117 170 91 90 151 60 96 103 107 161 160 155 193 197 228 175 186 181 172 213 285 252 199 228 242 242 235 236 260 247 257 262
354 358 355 354 349 354 46 114 108 64 338 0 119 144 75 105 43 76 73 104 101 124 150 143 178 215 216 195 206 176 176 226 227 256 282 309 251 254 236 220 237 256 237 262
356 358 357 359 359 3 9 304 77 143 143 144 143 85 90 126 113 63 90 110 145 148 140 163 217 203 192 186 203 189 211 248 244 257 275 279 269 266 256 225 232 238 260 260
357 358 360 2 5 8 48 25 355 15 60 146 167 94 157 127 98 127 150 141 155 176 159 203 195 196 208 219 190 198 219 273 285 279 271 264 271 266 258 241 240 248 258 268
356 357 1 4 7 15 2 1 279 281 132 166 173 169 172 169 136 61 95 169 132 217 234 264 265 234 229 229 201 204 202 221 285 272 316 309 274 262 257 241 235 236 247 251
358 357 359 4 6 9 356 310 292 302 158 184 169 164 162 195 197 116 139 124 153 133 17 295 267 251 250 242 237 215 191 176 222 289 307 279 333 249 258 268 264 241 247 258
357 357 358 2 4 4 357 336 298 309 152 210 206 199 182 107 108 102 153 162 118 346 288 279 301 246 220 233 227 225 226 234 267 284 294 280 331 344 330 288 353 316 250 259
356 356 357 358 3 4 2 10 2 303 320 218 200 203 197 192 190 161 198 105 162 107 248 211 256 264 309 144 174 40 219 224 213 304 295 303 313 339 283 259 21 359 332 253
354 353 355 358 358 2 3 328 7 317 270 250 197 192 182 178 168 129 138 101 120 160 212 237 229 249 287 259 231 165 138 183 230 236 261 271 258 295 290 350 338 344 339 224
354 351 349 352 355 356 356 321 2 360 308 281 222 183 151 135 179 145 134 156 172 153 222 241 235 244 243 267 233 189 204 191 208 212 246 294 188 256 321 341 322 322 355 8
346 344 342 343 345 346 351 327 332 335 231 285 290 276 222 234 180 153 180 8 138 150 223 226 301 237 225 265 270 183 227 231 289 229 259 358 249 267 296 318 290 301 292 148
337 339 334 332 335 337 340 331 339 341 284 245 230 199 180 192 176 179 156 257 174 188 160 290 243 264 300 236 236 271 222 207 249 293 209 257 275 270 342 358 310 297 182 138
326 329 330 327 326 328 326 317 306 292 266 279 86 26 166 257 207 202 165 130 111 108 197 218 238 268 221 258 304 259 340 170 219 250 282 291 259 296 28 59 71 106 120 127
317 318 319 318 318 321 316 307 271 234 245 323 322 93 354 350 190 173 163 159 156 178 197 213 227 224 126 216 272 241 195 221 222 294 109 291 5 91 105 106 100 115 122 119
313 312 313 307 307 309 322 284 108 55 26 267 233 83 147 143 128 152 164 173 169 206 210 224 244 218 220 236 247 243 210 223 245 296 99 54 89 104 115 112 115 123 122 124
312 311 308 305 296 271 218 269 26 322 328 247 282 359 85 136 125 172 185 184 208 215 237 221 244 274 187 255 253 253 231 228 223 196 145 159 187 168 136 122 118 115 113 116
316 312 309 305 278 202 234 267 253 274 258 259 178 183 235 183 175 203 188 201 194 200 235 229 235 178 235 255 244 247 248 170 201 191 160 63 118 124 128 132 136 128 121 122
320 316 325 104 90 141 138 294 237 251 262 297 144 164 200 174 225 200 188 257 232 163 243 235 219 188 228 239 256 252 224 210 190 134 133 136 150 148 147 148 149 138 138 131
332 358 18 97 18 321 165 131 223 201 197 223 230 111 183 215 180 141 229 123 288 271 238 335 233 256 256 260 261 275 250 189 146 138 152 134 150 165 162 163 156 144 140 135
1 14 12 302 334 270 65 317 227 187 200 174 199 201 178 204 174 195 266 205 290 263 98 277 267 260 246 339 307 304 241 179 185 213 225 181 171 166 162 153 138 133 137 136
298 302 305 311 327 73 255 260 284 135 183 168 182 209 211 175 283 149 157 213 209 251 346 275 258 253 298 334 318 316 231 172 165 169 164 161 153 153 146 139 141 139 133 137
207 193 344 335 310 81 37 353 356 79 358 1 12 185 204 166 189 87 160 221 239 9 256 248 246 298 309 336 329 323 269 152 127 112 115 127 129 134 140 136 138 136 135 139
43 351 46 21 68 78 43 342 312 314 290 326 314 267 208 94 115 131 216 166 286 254 248 242 254 274 320 325 328 299 190 140 127 128 128 128 129 124 128 135 139 138 137 141
98 259 127 93 54 262 328 261 287 265 282 286 239 240 220 122 151 188 102 204 242 226 235 240 268 307 314 319 334 184 149 135 132 135 134 131 132 130 124 133 137 136 134 133
191 142 142 146 128 285 17 355 300 287 309 281 230 173 170 228 169 164 211 194 232 262 237 288 317 316 307 310 297 154 142 139 134 135 140 139 140 138 129 127 130 132 133 132
255 205 222 116 193 223 256 320 276 333 307 287 320 211 192 53 239 250 190 217 333 330 327 328 317 304 308 292 164 147 145 144 140 136 139 132 130 131 128 123 127 124 126 127